SPMAZ LIPQ-LYTV

Flight info

Callsign SPMAZ
Flight time N/A
Altitude 25000
Route RCH DCT SORDO DCT DIGOT DCT TRILJ DCT DOPUT DCT TAZ
Aircraft P46T/L-SBDGRWY/SB1

Departure

Time 2026-05-05 17:13
Airport Trieste Airport (LIPQ)

Arrival

Time N/A
Airport Tivat Airport (LYTV)
Time Latitude Longitude Altitude Speed Heading
2026-05-05 16:54 45.82272 13.48076 40 ft 0 kts 167°
2026-05-05 17:07 45.82261 13.48081 40 ft 6 kts 164°
2026-05-05 17:07 45.82235 13.48134 40 ft 8 kts 76°
2026-05-05 17:07 45.82260 13.48212 40 ft 9 kts 21°
2026-05-05 17:07 45.82321 13.48183 40 ft 11 kts 319°
2026-05-05 17:08 45.82399 13.48088 40 ft 18 kts 321°
2026-05-05 17:08 45.82493 13.47973 40 ft 18 kts 320°
2026-05-05 17:08 45.82582 13.47865 40 ft 16 kts 318°
2026-05-05 17:08 45.82657 13.47774 40 ft 10 kts 320°
2026-05-05 17:09 45.82664 13.47765 40 ft 0 kts 321°
2026-05-05 17:12 45.82684 13.47743 41 ft 9 kts 320°
2026-05-05 17:12 45.82762 13.47660 42 ft 18 kts 324°
2026-05-05 17:12 45.82784 13.47401 42 ft 47 kts 272°
2026-05-05 17:13 45.82792 13.46673 40 ft 97 kts 271°
2026-05-05 17:13 45.82815 13.45606 276 ft 111 kts 272°
2026-05-05 17:13 45.82840 13.44478 680 ft 118 kts 273°
2026-05-05 17:13 45.82865 13.43272 1083 ft 120 kts 271°
2026-05-05 17:14 45.82913 13.42089 1499 ft 122 kts 269°
2026-05-05 17:14 45.82972 13.40822 1850 ft 130 kts 271°
2026-05-05 17:14 45.83014 13.39535 2317 ft 128 kts 265°
2026-05-05 17:14 45.82961 13.38279 2759 ft 127 kts 264°
2026-05-05 17:15 45.82927 13.37009 3201 ft 128 kts 265°
2026-05-05 17:15 45.82902 13.35725 3638 ft 128 kts 266°
2026-05-05 17:15 45.82881 13.34464 4067 ft 128 kts 267°
2026-05-05 17:15 45.82861 13.33170 4503 ft 129 kts 267°
2026-05-05 17:16 45.82843 13.31899 4931 ft 129 kts 268°
2026-05-05 17:16 45.82905 13.30608 5346 ft 132 kts 288°
2026-05-05 17:16 45.83501 13.29604 5779 ft 137 kts 326°
2026-05-05 17:16 45.84435 13.29354 6195 ft 144 kts
2026-05-05 17:17 45.85295 13.30096 6597 ft 150 kts 52°
2026-05-05 17:17 45.85702 13.31461 6962 ft 152 kts 72°
2026-05-05 17:17 45.86049 13.32910 7358 ft 154 kts 72°
2026-05-05 17:17 45.86400 13.34371 7756 ft 155 kts 72°
2026-05-05 17:18 45.86745 13.35843 8139 ft 157 kts 76°
2026-05-05 17:18 45.86646 13.37345 8531 ft 152 kts 121°
2026-05-05 17:18 45.86162 13.38688 8929 ft 154 kts 122°
2026-05-05 17:18 45.85687 13.40071 9357 ft 155 kts 122°
2026-05-05 17:19 45.85215 13.41458 9776 ft 156 kts 122°
2026-05-05 17:19 45.84735 13.42868 10170 ft 157 kts 122°
2026-05-05 17:19 45.84253 13.44289 10563 ft 158 kts 122°
2026-05-05 17:19 45.83778 13.45689 10951 ft 159 kts 122°
2026-05-05 17:20 45.83294 13.47113 11345 ft 159 kts 122°
2026-05-05 17:20 45.82727 13.48456 11727 ft 154 kts 140°
2026-05-05 17:20 45.81983 13.49575 12120 ft 155 kts 139°
2026-05-05 17:20 45.81256 13.50727 12525 ft 156 kts 139°
2026-05-05 17:21 45.80530 13.51868 12927 ft 156 kts 140°
2026-05-05 17:21 45.79793 13.53020 13338 ft 157 kts 140°
2026-05-05 17:21 45.79053 13.54177 13756 ft 158 kts 140°
2026-05-05 17:22 45.77563 13.56504 14471 ft 160 kts 140°
2026-05-05 17:22 45.76811 13.57678 14820 ft 161 kts 140°
2026-05-05 17:22 45.76044 13.58875 15172 ft 162 kts 139°
2026-05-05 17:22 45.75284 13.60060 15526 ft 164 kts 139°
2026-05-05 17:23 45.74516 13.61257 15869 ft 165 kts 139°
2026-05-05 17:23 45.73733 13.62477 16224 ft 166 kts 139°
2026-05-05 17:23 45.72953 13.63693 16566 ft 167 kts 139°
2026-05-05 17:23 45.72158 13.64931 16930 ft 169 kts 139°
2026-05-05 17:24 45.71365 13.66165 17284 ft 170 kts 139°
2026-05-05 17:24 45.70556 13.67423 17656 ft 171 kts 139°
2026-05-05 17:24 45.69751 13.68674 18009 ft 173 kts 139°
2026-05-05 17:24 45.68930 13.69950 18357 ft 174 kts 139°
2026-05-05 17:25 45.68115 13.71216 18662 ft 175 kts 139°
2026-05-05 17:25 45.67563 13.72075 18870 ft 176 kts 139°
2026-05-05 17:25 45.66452 13.73798 19277 ft 178 kts 139°
2026-05-05 17:25 45.65607 13.75109 19590 ft 179 kts 139°
2026-05-05 17:26 45.64767 13.76412 19891 ft 180 kts 138°
2026-05-05 17:26 45.63919 13.77725 20200 ft 181 kts 138°
2026-05-05 17:26 45.63056 13.79062 20515 ft 183 kts 138°
2026-05-05 17:26 45.62195 13.80395 20830 ft 184 kts 138°
2026-05-05 17:27 45.61328 13.81738 21140 ft 185 kts 138°
2026-05-05 17:27 45.60447 13.83100 21450 ft 187 kts 138°
2026-05-05 17:27 45.59562 13.84468 21761 ft 188 kts 138°
2026-05-05 17:27 45.58679 13.85833 22080 ft 189 kts 138°
2026-05-05 17:28 45.57781 13.87220 22398 ft 190 kts 137°
2026-05-05 17:28 45.56886 13.88601 22714 ft 191 kts 137°
2026-05-05 17:28 45.55981 13.89997 23025 ft 193 kts 137°
2026-05-05 17:28 45.55065 13.91410 23340 ft 194 kts 137°
2026-05-05 17:29 45.54154 13.92814 23639 ft 195 kts 137°
2026-05-05 17:29 45.53224 13.94247 23902 ft 196 kts 137°
2026-05-05 17:29 45.52302 13.95666 24174 ft 196 kts 137°
2026-05-05 17:29 45.51368 13.97104 24453 ft 197 kts 138°
2026-05-05 17:30 45.50434 13.98540 24724 ft 198 kts 138°
2026-05-05 17:30 45.49491 13.99990 24996 ft 199 kts 138°
2026-05-05 17:30 45.48558 14.01423 25259 ft 200 kts 138°
2026-05-05 17:30 45.47609 14.02880 25528 ft 200 kts 138°
2026-05-05 17:31 45.46652 14.04350 25793 ft 201 kts 138°
2026-05-05 17:31 45.45704 14.05803 26051 ft 202 kts 138°
2026-05-05 17:31 45.44750 14.07267 26319 ft 203 kts 138°
2026-05-05 17:31 45.43781 14.08752 26592 ft 204 kts 138°
2026-05-05 17:32 45.42819 14.10225 26851 ft 205 kts 139°
2026-05-05 17:32 45.41838 14.11723 27020 ft 211 kts 139°
2026-05-05 17:32 45.40805 14.13291 27036 ft 224 kts 138°
2026-05-05 17:32 45.39720 14.14945 27036 ft 234 kts 138°
2026-05-05 17:33 45.38578 14.16689 27036 ft 243 kts 138°
2026-05-05 17:33 45.37422 14.18461 27039 ft 248 kts 137°
2026-05-05 17:33 45.36260 14.20265 27036 ft 248 kts 137°
2026-05-05 17:33 45.35093 14.22077 27033 ft 247 kts 137°
2026-05-05 17:34 45.33943 14.23854 27033 ft 246 kts 137°
2026-05-05 17:34 45.32777 14.25654 27030 ft 245 kts 137°
2026-05-05 17:34 45.31633 14.27420 27029 ft 245 kts 137°
2026-05-05 17:34 45.30486 14.29189 27027 ft 244 kts 137°
2026-05-05 17:35 45.29330 14.30971 27027 ft 244 kts 137°
2026-05-05 17:35 45.28176 14.32748 27026 ft 244 kts 137°
2026-05-05 17:35 45.27032 14.34510 27023 ft 244 kts 137°
2026-05-05 17:35 45.25877 14.36287 27022 ft 244 kts 137°
2026-05-05 17:36 45.24733 14.38045 27021 ft 244 kts 137°
2026-05-05 17:36 45.23573 14.39827 27020 ft 244 kts 137°
2026-05-05 17:36 45.22429 14.41583 27020 ft 244 kts 137°
2026-05-05 17:36 45.21268 14.43365 27020 ft 244 kts 137°
2026-05-05 17:37 45.20126 14.45116 27017 ft 245 kts 137°
2026-05-05 17:37 45.18960 14.46903 27019 ft 245 kts 137°
2026-05-05 17:37 45.17810 14.48664 27015 ft 245 kts 137°
2026-05-05 17:37 45.16649 14.50441 27015 ft 245 kts 137°
2026-05-05 17:38 45.15498 14.52202 27014 ft 245 kts 137°
2026-05-05 17:38 45.14335 14.53979 27013 ft 245 kts 137°
2026-05-05 17:38 45.13191 14.55726 27012 ft 245 kts 137°
2026-05-05 17:38 45.12026 14.57505 27016 ft 245 kts 137°
2026-05-05 17:39 45.10859 14.59285 27016 ft 245 kts 137°
2026-05-05 17:39 45.09703 14.61047 27016 ft 246 kts 137°
2026-05-05 17:39 45.08549 14.62806 27015 ft 246 kts 137°
2026-05-05 17:39 45.07380 14.64587 27015 ft 246 kts 138°
2026-05-05 17:40 45.06223 14.66346 27014 ft 246 kts 138°
2026-05-05 17:40 45.05047 14.68134 27012 ft 247 kts 137°
2026-05-05 17:40 45.03877 14.69912 27012 ft 247 kts 138°
2026-05-05 17:40 45.02718 14.71673 27013 ft 247 kts 138°
2026-05-05 17:41 45.01554 14.73440 27010 ft 247 kts 138°
2026-05-05 17:41 45.00374 14.75230 27011 ft 247 kts 138°
2026-05-05 17:41 44.99208 14.76997 27011 ft 247 kts 138°
2026-05-05 17:41 44.98043 14.78762 27016 ft 247 kts 138°
2026-05-05 17:42 44.96869 14.80540 27009 ft 247 kts 138°
2026-05-05 17:42 44.95705 14.82301 27014 ft 246 kts 138°
2026-05-05 17:42 44.94526 14.84083 27009 ft 246 kts 138°
2026-05-05 17:42 44.93366 14.85836 27012 ft 247 kts 138°
2026-05-05 17:43 44.92189 14.87613 27009 ft 247 kts 138°
2026-05-05 17:43 44.91026 14.89368 27008 ft 247 kts 138°
2026-05-05 17:43 44.89849 14.91142 27013 ft 247 kts 138°
2026-05-05 17:43 44.88670 14.92920 27018 ft 248 kts 138°
2026-05-05 17:44 44.87503 14.94677 27013 ft 248 kts 138°
2026-05-05 17:44 44.86315 14.96466 27012 ft 248 kts 138°
2026-05-05 17:44 44.85141 14.98231 27012 ft 248 kts 138°
2026-05-05 17:44 44.83956 15.00011 27013 ft 248 kts 138°
2026-05-05 17:45 44.82774 15.01787 27013 ft 249 kts 138°
2026-05-05 17:45 44.81599 15.03551 27013 ft 249 kts 138°
2026-05-05 17:45 44.80403 15.05346 27017 ft 249 kts 138°
2026-05-05 17:45 44.79221 15.07118 27018 ft 250 kts 138°
2026-05-05 17:46 44.78041 15.08887 27017 ft 250 kts 138°
2026-05-05 17:46 44.76842 15.10682 27015 ft 250 kts 138°
2026-05-05 17:46 44.75658 15.12453 27013 ft 250 kts 138°
2026-05-05 17:46 44.74476 15.14221 27012 ft 250 kts 138°
2026-05-05 17:47 44.73276 15.16015 27012 ft 250 kts 139°
2026-05-05 17:47 44.72091 15.17786 27020 ft 250 kts 139°
2026-05-05 17:47 44.70905 15.19556 27015 ft 250 kts 139°
2026-05-05 17:47 44.69720 15.21323 27016 ft 249 kts 139°
2026-05-05 17:48 44.68525 15.23105 27020 ft 249 kts 139°
2026-05-05 17:48 44.67342 15.24867 27019 ft 249 kts 139°
2026-05-05 17:48 44.66148 15.26644 27019 ft 249 kts 139°
2026-05-05 17:48 44.64967 15.28402 27027 ft 249 kts 139°
2026-05-05 17:49 44.63782 15.30165 27028 ft 249 kts 139°
2026-05-05 17:49 44.62579 15.31951 27026 ft 250 kts 139°
2026-05-05 17:49 44.61393 15.33712 27022 ft 250 kts 139°
2026-05-05 17:49 44.60206 15.35474 27023 ft 250 kts 139°
2026-05-05 17:50 44.59006 15.37254 27024 ft 250 kts 139°
2026-05-05 17:50 44.57804 15.39035 27028 ft 250 kts 139°
2026-05-05 17:50 44.56622 15.40787 27030 ft 250 kts 139°
2026-05-05 17:50 44.55415 15.42573 27033 ft 251 kts 139°
2026-05-05 17:51 44.54223 15.44335 27033 ft 251 kts 139°
2026-05-05 17:51 44.53011 15.46127 27034 ft 251 kts 139°
2026-05-05 17:51 44.51814 15.47896 27037 ft 251 kts 139°
2026-05-05 17:51 44.50618 15.49661 27041 ft 251 kts 139°
2026-05-05 17:52 44.49422 15.51427 27039 ft 251 kts 139°
2026-05-05 17:52 44.48208 15.53218 27043 ft 251 kts 139°
2026-05-05 17:52 44.47009 15.54984 27041 ft 251 kts 139°
2026-05-05 17:52 44.45806 15.56755 27043 ft 251 kts 139°
2026-05-05 17:53 44.44605 15.58523 27040 ft 252 kts 139°
2026-05-05 17:53 44.43394 15.60304 27039 ft 252 kts 139°
2026-05-05 17:53 44.42194 15.62068 27042 ft 252 kts 139°
2026-05-05 17:53 44.40976 15.63857 27046 ft 252 kts 139°
2026-05-05 17:54 44.39778 15.65615 27044 ft 252 kts 139°
2026-05-05 17:54 44.38561 15.67363 27047 ft 251 kts 141°
2026-05-05 17:54 44.37309 15.69093 27043 ft 252 kts 140°
2026-05-05 17:54 44.36085 15.70832 27040 ft 252 kts 140°
2026-05-05 17:55 44.34858 15.72559 27039 ft 252 kts 140°
2026-05-05 17:55 44.33606 15.74304 27040 ft 252 kts 141°
2026-05-05 17:55 44.32371 15.76026 27046 ft 252 kts 140°
2026-05-05 17:55 44.31138 15.77746 27045 ft 252 kts 141°
2026-05-05 17:56 44.29889 15.79489 27045 ft 252 kts 141°
2026-05-05 17:56 44.28642 15.81226 27041 ft 253 kts 141°
2026-05-05 17:56 44.27411 15.82941 27046 ft 253 kts 141°
2026-05-05 17:56 44.26160 15.84681 27047 ft 254 kts 141°
2026-05-05 17:57 44.24909 15.86423 27045 ft 253 kts 141°
2026-05-05 17:57 44.23672 15.88143 27048 ft 252 kts 141°
2026-05-05 17:57 44.22435 15.89862 27048 ft 253 kts 141°
2026-05-05 17:57 44.21181 15.91601 27051 ft 253 kts 141°
2026-05-05 17:58 44.19937 15.93326 27050 ft 254 kts 141°
2026-05-05 17:58 44.18670 15.95083 27051 ft 255 kts 141°
2026-05-05 17:58 44.17438 15.96791 27048 ft 251 kts 141°
2026-05-05 17:58 44.16201 15.98506 27052 ft 248 kts 141°
2026-05-05 17:59 44.14981 16.00197 27052 ft 245 kts 141°
2026-05-05 17:59 44.13784 16.01851 27053 ft 244 kts 141°
2026-05-05 17:59 44.12578 16.03519 27052 ft 243 kts 141°
2026-05-05 17:59 44.11396 16.05152 27047 ft 241 kts 141°
2026-05-05 18:00 44.10202 16.06801 27049 ft 240 kts 141°
2026-05-05 18:00 44.09030 16.08420 27050 ft 239 kts 141°
2026-05-05 18:00 44.07839 16.10061 27050 ft 239 kts 141°
2026-05-05 18:00 44.06670 16.11672 27050 ft 239 kts 141°
2026-05-05 18:01 44.05485 16.13304 27054 ft 239 kts 141°
2026-05-05 18:01 44.04317 16.14912 27052 ft 238 kts 141°
2026-05-05 18:01 44.03133 16.16541 27054 ft 238 kts 141°
2026-05-05 18:01 44.01965 16.18147 27052 ft 238 kts 141°
2026-05-05 18:02 44.00785 16.19770 27059 ft 238 kts 141°
2026-05-05 18:02 43.99617 16.21374 27058 ft 238 kts 141°
2026-05-05 18:02 43.98439 16.22989 27055 ft 238 kts 141°
2026-05-05 18:02 43.97256 16.24611 27060 ft 238 kts 142°
2026-05-05 18:03 43.96075 16.26232 27060 ft 238 kts 141°
2026-05-05 18:03 43.94906 16.27832 27063 ft 238 kts 141°
2026-05-05 18:03 43.93716 16.29462 27061 ft 239 kts 141°
2026-05-05 18:03 43.92546 16.31063 27066 ft 239 kts 141°
2026-05-05 18:04 43.91359 16.32686 27067 ft 239 kts 142°
2026-05-05 18:04 43.90171 16.34310 27066 ft 240 kts 142°
2026-05-05 18:04 43.88982 16.35933 27066 ft 239 kts 141°
2026-05-05 18:04 43.87811 16.37534 27068 ft 238 kts 141°
2026-05-05 18:05 43.86630 16.39146 27067 ft 237 kts 142°
2026-05-05 18:05 43.85467 16.40732 27062 ft 237 kts 142°
2026-05-05 18:05 43.84286 16.42341 27068 ft 236 kts 142°
2026-05-05 18:05 43.83214 16.43801 27063 ft 236 kts 142°
2026-05-05 18:06 43.82054 16.45381 27062 ft 235 kts 142°
2026-05-05 18:06 43.81281 16.46436 27070 ft 234 kts 142°
2026-05-05 18:06 43.79732 16.48539 27068 ft 235 kts 142°
2026-05-05 18:06 43.78561 16.50131 27058 ft 233 kts 142°
2026-05-05 18:07 43.77425 16.51677 27067 ft 231 kts 142°
2026-05-05 18:07 43.76266 16.53248 27064 ft 231 kts 142°
2026-05-05 18:07 43.75127 16.54795 27064 ft 231 kts 142°
2026-05-05 18:07 43.73971 16.56359 27068 ft 233 kts 142°
2026-05-05 18:08 43.72810 16.57932 27061 ft 233 kts 142°
2026-05-05 18:08 43.71666 16.59484 27066 ft 232 kts 142°
2026-05-05 18:08 43.70509 16.61049 27063 ft 233 kts 142°
2026-05-05 18:08 43.69352 16.62613 27060 ft 233 kts 142°
2026-05-05 18:09 43.68181 16.64197 27063 ft 234 kts 142°
2026-05-05 18:09 43.67027 16.65755 27064 ft 235 kts 141°
2026-05-05 18:09 43.65854 16.67340 27065 ft 235 kts 142°
2026-05-05 18:09 43.64689 16.68911 27063 ft 236 kts 141°
2026-05-05 18:10 43.63510 16.70502 27063 ft 236 kts 141°
2026-05-05 18:10 43.62334 16.72087 27063 ft 236 kts 141°
2026-05-05 18:10 43.61166 16.73662 27066 ft 237 kts 141°
2026-05-05 18:10 43.59991 16.75256 27064 ft 237 kts 141°
2026-05-05 18:11 43.58828 16.76834 27067 ft 237 kts 141°
2026-05-05 18:11 43.57648 16.78433 27066 ft 237 kts 141°
2026-05-05 18:11 43.56463 16.80035 27067 ft 237 kts 141°
2026-05-05 18:11 43.55295 16.81615 27064 ft 237 kts 141°
2026-05-05 18:12 43.54111 16.83215 27062 ft 237 kts 141°
2026-05-05 18:12 43.52929 16.84813 27061 ft 237 kts 141°
2026-05-05 18:12 43.51756 16.86396 27065 ft 237 kts 141°
2026-05-05 18:12 43.50570 16.87997 27066 ft 237 kts 141°
2026-05-05 18:13 43.49397 16.89578 27063 ft 238 kts 141°
2026-05-05 18:13 43.48210 16.91178 27059 ft 238 kts 141°
2026-05-05 18:13 43.47041 16.92752 27058 ft 238 kts 141°
2026-05-05 18:13 43.45853 16.94352 27063 ft 238 kts 141°
2026-05-05 18:14 43.44678 16.95933 27063 ft 238 kts 141°
2026-05-05 18:14 43.43485 16.97536 27056 ft 238 kts 141°
2026-05-05 18:14 43.42299 16.99131 27061 ft 238 kts 141°
2026-05-05 18:14 43.41120 17.00714 27055 ft 239 kts 141°
2026-05-05 18:15 43.39925 17.02319 27060 ft 239 kts 141°
2026-05-05 18:15 43.38732 17.03918 27058 ft 239 kts 141°
2026-05-05 18:15 43.37555 17.05496 27055 ft 238 kts 141°
2026-05-05 18:15 43.36369 17.07087 27066 ft 237 kts 141°
2026-05-05 18:16 43.35189 17.08668 27058 ft 236 kts 141°
2026-05-05 18:16 43.34029 17.10220 27060 ft 236 kts 141°
2026-05-05 18:16 43.32847 17.11801 27058 ft 236 kts 141°
2026-05-05 18:16 43.31666 17.13380 27057 ft 236 kts 141°
2026-05-05 18:17 43.30499 17.14940 27060 ft 236 kts 141°
2026-05-05 18:17 43.29323 17.16511 27057 ft 235 kts 141°
2026-05-05 18:17 43.28159 17.18063 27059 ft 235 kts 141°
2026-05-05 18:17 43.26983 17.19633 27059 ft 235 kts 141°
2026-05-05 18:18 43.25817 17.21187 27052 ft 236 kts 141°
2026-05-05 18:18 43.24632 17.22765 27053 ft 236 kts 141°
2026-05-05 18:18 43.23449 17.24340 27062 ft 237 kts 141°
2026-05-05 18:18 43.22277 17.25899 27061 ft 238 kts 141°
2026-05-05 18:19 43.21084 17.27486 27065 ft 238 kts 141°
2026-05-05 18:19 43.19889 17.29075 27065 ft 239 kts 141°
2026-05-05 18:19 43.18692 17.30664 27058 ft 239 kts 141°
2026-05-05 18:19 43.17507 17.32238 27063 ft 240 kts 141°
2026-05-05 18:20 43.16711 17.33295 27062 ft 240 kts 141°
2026-05-05 18:20 43.15508 17.34890 27057 ft 240 kts 141°
2026-05-05 18:20 43.13915 17.37002 27063 ft 240 kts 141°
2026-05-05 18:20 43.13118 17.38059 27061 ft 240 kts 141°
2026-05-05 18:21 43.11523 17.40170 27064 ft 240 kts 141°
2026-05-05 18:21 43.10319 17.41763 27063 ft 240 kts 141°
2026-05-05 18:21 43.09128 17.43338 27063 ft 240 kts 141°
2026-05-05 18:21 43.07922 17.44934 27057 ft 239 kts 141°
2026-05-05 18:22 43.06733 17.46503 27063 ft 240 kts 141°
2026-05-05 18:22 43.05934 17.47558 27051 ft 240 kts 141°
2026-05-05 18:22 43.04723 17.49158 27062 ft 239 kts 141°
2026-05-05 18:22 43.03535 17.50725 27065 ft 240 kts 141°
2026-05-05 18:23 43.02330 17.52311 27063 ft 240 kts 141°
2026-05-05 18:23 43.01137 17.53883 27063 ft 240 kts 141°
2026-05-05 18:23 42.99929 17.55473 27062 ft 240 kts 141°
2026-05-05 18:23 42.98722 17.57062 27059 ft 240 kts 141°
2026-05-05 18:24 42.97537 17.58622 27065 ft 238 kts 141°
2026-05-05 18:24 42.96350 17.60181 27062 ft 239 kts 141°
2026-05-05 18:24 42.95150 17.61758 27068 ft 240 kts 141°
2026-05-05 18:24 42.93951 17.63332 27061 ft 240 kts 141°
2026-05-05 18:25 42.92739 17.64923 27061 ft 240 kts 141°
2026-05-05 18:25 42.91938 17.65973 27063 ft 240 kts 141°
2026-05-05 18:25 42.90332 17.68078 27064 ft 240 kts 141°
2026-05-05 18:25 42.89136 17.69644 27060 ft 240 kts 141°
2026-05-05 18:26 42.87933 17.71221 27065 ft 239 kts 141°
2026-05-05 18:26 42.86730 17.72794 27065 ft 240 kts 141°
2026-05-05 18:26 42.85533 17.74359 27063 ft 240 kts 141°
2026-05-05 18:26 42.84322 17.75941 27061 ft 240 kts 141°
2026-05-05 18:27 42.83119 17.77514 27065 ft 240 kts 142°
2026-05-05 18:27 42.81909 17.79093 27066 ft 240 kts 141°
2026-05-05 18:27 42.80715 17.80650 27064 ft 241 kts 141°
2026-05-05 18:27 42.79499 17.82236 27060 ft 241 kts 141°
2026-05-05 18:28 42.77081 17.85387 27065 ft 241 kts 141°
2026-05-05 18:28 42.75865 17.86970 27063 ft 241 kts 141°
2026-05-05 18:28 42.74661 17.88537 27062 ft 241 kts 141°
2026-05-05 18:29 42.73476 17.90167 27060 ft 243 kts 133°
2026-05-05 18:29 42.72518 17.92050 27066 ft 244 kts 127°
2026-05-05 18:29 42.71580 17.93988 27068 ft 244 kts 127°
2026-05-05 18:29 42.70642 17.95885 27067 ft 244 kts 128°
2026-05-05 18:30 42.69679 17.97809 27067 ft 244 kts 128°
2026-05-05 18:30 42.68731 17.99711 27065 ft 245 kts 128°
2026-05-05 18:30 42.67776 18.01631 27066 ft 245 kts 128°
2026-05-05 18:30 42.66817 18.03555 27066 ft 245 kts 128°
2026-05-05 18:31 42.65869 18.05454 27070 ft 245 kts 128°
2026-05-05 18:31 42.64911 18.07374 27065 ft 245 kts 128°
2026-05-05 18:31 42.63950 18.09297 27067 ft 245 kts 128°
2026-05-05 18:31 42.63002 18.11195 27066 ft 245 kts 128°
2026-05-05 18:32 42.62039 18.13121 27069 ft 245 kts 128°
2026-05-05 18:32 42.61088 18.15022 27067 ft 245 kts 128°
2026-05-05 18:32 42.60120 18.16954 27070 ft 245 kts 128°
2026-05-05 18:32 42.59173 18.18845 27068 ft 245 kts 128°
2026-05-05 18:33 42.58208 18.20769 27069 ft 245 kts 128°
2026-05-05 18:33 42.57244 18.22690 27069 ft 246 kts 128°
2026-05-05 18:33 42.56291 18.24588 27069 ft 246 kts 128°
2026-05-05 18:33 42.55320 18.26522 27066 ft 246 kts 128°
2026-05-05 18:34 42.54367 18.28418 27066 ft 246 kts 128°
2026-05-05 18:34 42.53401 18.30338 27067 ft 246 kts 128°
2026-05-05 18:34 42.52441 18.32246 27067 ft 246 kts 128°
2026-05-05 18:34 42.51471 18.34172 27069 ft 247 kts 128°
2026-05-05 18:35 42.50507 18.36085 27070 ft 247 kts 128°
2026-05-05 18:35 42.49529 18.38023 27070 ft 247 kts 128°
2026-05-05 18:35 42.48568 18.39928 27071 ft 247 kts 128°
2026-05-05 18:35 42.47593 18.41860 27068 ft 247 kts 128°
2026-05-05 18:36 42.46628 18.43770 27069 ft 247 kts 128°
2026-05-05 18:36 42.45666 18.45673 27071 ft 247 kts 128°
2026-05-05 18:36 42.44691 18.47601 27067 ft 247 kts 128°
2026-05-05 18:36 42.43714 18.49529 27071 ft 247 kts 128°
2026-05-05 18:37 42.42757 18.51417 26953 ft 243 kts 128°
2026-05-05 18:37 42.41811 18.53285 26820 ft 240 kts 128°
2026-05-05 18:37 42.40862 18.55155 26688 ft 239 kts 128°
2026-05-05 18:37 42.39933 18.56987 26558 ft 238 kts 128°
2026-05-05 18:38 42.38992 18.58840 26429 ft 237 kts 128°
2026-05-05 18:38 42.38059 18.60677 26302 ft 236 kts 128°
2026-05-05 18:38 42.37133 18.62497 26178 ft 236 kts 128°
2026-05-05 18:38 42.36173 18.64375 25684 ft 251 kts 128°
2026-05-05 18:39 42.35160 18.66350 25108 ft 264 kts 128°
2026-05-05 18:39 42.34097 18.68435 24542 ft 272 kts 128°
2026-05-05 18:39 42.33025 18.70540 23990 ft 275 kts 128°
2026-05-05 18:39 42.31932 18.72684 23394 ft 277 kts 128°
2026-05-05 18:40 42.30830 18.74843 22723 ft 278 kts 128°
2026-05-05 18:40 42.29746 18.76961 22082 ft 277 kts 128°
2026-05-05 18:40 42.28649 18.79107 21437 ft 275 kts 128°
2026-05-05 18:40 42.27698 18.81310 20803 ft 275 kts 117°
2026-05-05 18:41 42.26872 18.83649 20188 ft 273 kts 118°